Hourly Data Report for September 23, 2017

All times are specified in Local Standard Time (LST). Add 1 hour to adjust for Daylight Saving Time where and when it is observed.

MIRAMICHI RCS
NEW BRUNSWICK

47°00'34.000" N
65°27'54.000" W
33.00 m
8100989
71744
ACQ

Download Data

Hourly Data (September 2017)
Hourly Data Report for September 23, 2017
Temp Definition
°C
Dew Point Temp Definition
°C
Rel Hum Definition
%
Wind Dir Definition
10's deg

Wind Spd Definition
km/h
Visibility Definition
km
Stn Press Definition
kPa
Hmdx Definition


Wind Chill Definition


Weather Definition


TIME
00:00 12.5 9.7 83 24 8   101.34     LegendNANA
01:00 12.0 9.2 83 30 3   101.32     LegendNANA
02:00 10.7 8.7 88 28 9   101.28     LegendNANA
03:00 11.5 7.5 77 24 10   101.15     LegendNANA
04:00 11.1 6.9 75 24 9   101.09     LegendNANA
05:00 10.9 6.5 74 24 10   101.05     LegendNANA
06:00 10.0 6.3 78 25 11   101.03     LegendNANA
07:00 11.0 6.9 75 21 4   100.98     LegendNANA
08:00 13.9 7.3 64 24 12   100.96     LegendNANA
09:00 17.2 7.8 54 25 12   100.93     LegendNANA
10:00 20.3 8.4 46 23 16   100.88     LegendNANA
11:00 23.5 9.7 42 24 22   100.83 25   LegendNANA
12:00 26.4 11.0 38 25 16   100.80 28   LegendNANA
13:00 28.4 14.1 42 26 17   100.77 32   LegendNANA
14:00 29.3 15.5 43 29 23   100.73 34   LegendNANA
15:00 29.6 15.2 42 29 14   100.74 34   LegendNANA
16:00 28.5 14.6 43 30 15   100.77 32   LegendNANA
17:00 27.7 14.6 45 34 10   100.85 31   LegendNANA
18:00 25.9 14.0 48 35 3   100.92 29   LegendNANA
19:00 23.1 13.1 53 36 5   101.05 26   LegendNANA
20:00 19.2 12.3 64 7 22   101.21     LegendNANA
21:00 16.3 10.5 69 8 11   101.28     LegendNANA
22:00 15.5 10.4 72 12 3   101.32     LegendNANA
23:00 13.6 10.4 81 0 1   101.35     LegendNANA

Notes on Data Quality.

Legend

  • E = Estimated
  • M = Missing
  • NA = Not Available
  • ‡ = Partner data that is not subject to review by the National Climate Archives
Date modified: